Location: Unspecified
(0.0000°N, 0.0000°E)
Time: 21:24:49
(UTC+00:00)

Vanguard 3 - All Passes

Search period start: 17 April 2014 00:00
Search period end: 27 April 2014 00:00
Orbit: 507 x 3281 km, 33.4° (Epoch: 16 April)

Date Brightness Start Highest point End Pass type
(mag) Time Alt. Az. Time Alt. Az. Time Alt. Az.
17 Apr - 02:33:49 10° SSW 02:44:57 35° SE 03:00:58 10° E visible
17 Apr - 04:45:24 10° SW 05:01:17 87° SE 05:21:42 10° NE visible
17 Apr - 07:01:52 10° W 07:19:28 44° NNW 07:36:48 10° NE daylight
17 Apr - 09:27:38 10° WNW 09:39:16 18° NNW 09:49:03 10° NNE daylight
17 Apr - 14:14:23 10° N 14:17:40 13° NNE 14:20:24 10° NE daylight
17 Apr - 16:26:01 10° NW 16:31:39 53° NNE 16:35:31 10° ESE daylight
17 Apr - 18:42:22 10° SW 18:43:08 11° SW 18:43:54 10° SSW visible
18 Apr - 01:23:51 10° S 01:31:22 20° SE 01:41:32 10° ESE visible
18 Apr - 03:33:23 10° SW 03:46:51 62° SE 04:06:21 10° ENE visible
18 Apr - 05:47:10 10° WSW 06:04:05 62° NW 06:23:38 10° NE daylight
18 Apr - 08:07:58 10° WNW 08:23:23 27° NNW 08:37:16 10° NNE daylight
18 Apr - 10:39:12 10° NNW 10:44:25 12° NNW 10:49:03 10° N daylight
18 Apr - 13:02:03 10° N 13:04:04 11° N 13:05:55 10° NNE daylight
18 Apr - 15:13:35 10° NNW 15:19:45 27° NNE 15:23:54 10° E daylight
18 Apr - 17:27:33 10° WNW 17:31:53 33° SW 17:35:18 10° SSE daylight
19 Apr - 02:22:18 10° SSW 02:33:06 40° SE 02:49:29 10° ENE visible
19 Apr - 04:34:00 10° WSW 04:49:04 83° NW 05:09:30 10° NE visible
19 Apr - 06:50:55 10° W 07:07:34 39° NNW 07:24:41 10° NNE daylight
19 Apr - 09:17:22 10° NW 09:28:19 17° NNW 09:37:44 10° NNE daylight
19 Apr - 11:46:45 10° NNW 11:49:30 11° N 11:51:59 10° NNE daylight
19 Apr - 14:00:54 10° NNW 14:07:04 19° NNE 14:11:29 10° ENE daylight
19 Apr - 16:14:19 10° NW 16:20:44 84° NE 16:24:51 10° ESE daylight
20 Apr - 01:12:16 10° S 01:19:54 23° SE 01:30:45 10° E visible
20 Apr - 03:21:57 10° SW 03:34:43 71° SE 03:54:16 10° ENE visible
20 Apr - 05:36:02 10° WSW 05:52:00 53° NNW 06:11:20 10° NE visible
20 Apr - 07:57:32 10° WNW 08:12:00 24° NNW 08:25:27 10° NNE daylight
20 Apr - 10:27:35 10° NNW 10:33:53 13° N 10:39:21 10° NNE daylight
20 Apr - 12:47:30 10° NNW 12:53:31 15° NNE 12:58:11 10° NE daylight
20 Apr - 15:01:14 10° NW 15:08:57 41° NNE 15:13:40 10° E daylight
20 Apr - 17:16:46 10° W 17:20:46 22° SW 17:23:55 10° SSE daylight
21 Apr - 02:10:51 10° SSW 02:21:12 46° SE 02:37:44 10° ENE visible
21 Apr - 04:22:45 10° WSW 04:36:57 73° NW 04:57:07 10° NE visible
21 Apr - 06:40:12 10° W 06:55:50 34° NNW 07:12:29 10° NNE daylight
21 Apr - 09:06:59 10° NW 09:17:29 16° NNW 09:26:40 10° NNE daylight
21 Apr - 11:32:41 10° NNW 11:38:59 14° N 11:44:08 10° NNE daylight
21 Apr - 13:47:57 10° NNW 13:56:20 27° NNE 14:01:45 10° ENE daylight
21 Apr - 16:02:43 10° WNW 16:09:40 65° SW 16:13:59 10° SE daylight
22 Apr - 01:00:44 10° SSW 01:08:21 26° SE 01:19:41 10° E visible
22 Apr - 03:10:39 10° SW 03:22:40 82° SE 03:41:59 10° ENE visible
22 Apr - 05:25:05 10° W 05:40:05 46° NNW 05:58:53 10° NE visible
22 Apr - 07:47:15 10° WNW 08:00:47 22° NNW 08:13:40 10° NNE daylight
22 Apr - 10:15:31 10° NNW 10:23:20 14° N 10:29:56 10° NNE daylight
22 Apr - 12:34:07 10° NNW 12:42:51 20° NNE 12:48:58 10° ENE daylight
22 Apr - 14:48:59 10° NW 14:58:00 60° NNE 15:03:10 10° ESE daylight
22 Apr - 17:06:15 10° W 17:09:35 16° SW 17:12:17 10° S daylight
22 Apr - 23:53:09 10° SSE 23:55:44 11° SE 23:58:41 10° SE night (unlit)
23 Apr - 01:59:29 10° SW 02:09:18 54° SE 02:25:47 10° ENE visible
23 Apr - 04:11:39 10° WSW 04:24:58 63° NNW 04:44:34 10° NE visible
23 Apr - 06:29:42 10° WNW 06:44:17 29° NNW 07:00:14 10° NNE daylight
23 Apr - 08:56:20 10° NW 09:06:45 16° N 09:15:56 10° NNE daylight
23 Apr - 11:19:22 10° NNW 11:28:21 17° N 11:35:11 10° NE daylight
23 Apr - 13:35:10 10° NW 13:45:29 37° NNE 13:51:37 10° E daylight
23 Apr - 15:51:11 10° WNW 15:58:27 46° SW 16:02:56 10° SSE daylight
24 Apr - 00:49:15 10° SSW 00:56:42 30° SE 01:08:23 10° E visible
24 Apr - 02:59:27 10° SW 03:10:42 87° NW 03:29:30 10° NE visible
24 Apr - 05:14:21 10° W 05:28:21 39° NNW 05:46:19 10° NE visible
24 Apr - 07:37:04 10° NW 07:49:44 20° NNW 08:02:01 10° NNE daylight
24 Apr - 10:03:10 10° NNW 10:12:43 16° N 10:20:34 10° NE daylight
24 Apr - 12:21:00 10° NNW 12:32:01 27° NNE 12:39:12 10° ENE daylight
24 Apr - 14:36:48 10° NW 14:46:53 82° NE 14:52:27 10° ESE daylight
24 Apr - 16:56:13 10° WSW 16:58:20 12° SW 17:00:11 10° SSW daylight
24 Apr - 23:40:48 10° SSE 23:44:27 13° SE 23:48:58 10° ESE night (unlit)
25 Apr - 01:48:12 10° SW 01:57:26 63° SE 02:13:37 10° ENE visible
25 Apr - 04:00:44 10° WSW 04:13:10 53° NNW 04:31:53 10° NE visible
25 Apr - 06:19:26 10° WNW 06:32:56 26° NNW 06:47:58 10° NNE daylight
25 Apr - 08:45:20 10° NW 08:56:02 16° N 09:05:33 10° NNE daylight
25 Apr - 11:06:14 10° NNW 11:17:33 22° NNE 11:25:44 10° ENE daylight
25 Apr - 13:22:28 10° NW 13:34:27 49° NNE 13:41:11 10° ESE daylight
25 Apr - 15:39:45 10° WNW 15:47:07 35° SW 15:51:45 10° SSE daylight
26 Apr - 00:37:50 10° SSW 00:45:01 36° SE 00:56:50 10° ENE visible
26 Apr - 02:48:23 10° WSW 02:58:53 74° NW 03:16:53 10° NE visible
26 Apr - 05:03:50 10° W 05:16:48 33° NNW 05:33:40 10° NNE visible
26 Apr - 07:26:52 10° NW 07:38:48 19° N 07:50:35 10° NNE daylight
26 Apr - 09:50:37 10° NNW 10:01:58 19° N 10:11:04 10° NE daylight
26 Apr - 12:07:58 10° NW 12:21:01 35° NNE 12:29:05 10° E daylight
26 Apr - 14:24:39 10° WNW 14:35:35 76° SW 14:41:33 10° SE daylight
26 Apr - 23:28:51 10° S 23:33:04 16° SE 23:38:38 10° ESE night (unlit)
